Tracking 31011 objects as of 12-Jul-2025
HD Live streaming from Space Station
objects crossing your sky now

STARLINK-32409

Track STARLINK-32409 now!
10-day predictions
STARLINK-32409 is classified as:


NORAD ID: 61591
Int'l Code: 2024-187T
Perigee: 453.5 km
Apogee: 455.3 km
Inclination: 53.2 °
Period: 93.5 minutes
Semi major axis: 6825 km
RCS: Unknown
Launch date: October 18, 2024
Source: United States (US)
Launch site: AIR FORCE EASTERN TEST RANGE (AFETR)
Your satellite tracking list
Your tracking list is empty




NASA's NSSDC Master Catalog

Two Line Element Set (TLE):
1 61591U 24187T   25192.47337674 -.00000105  00000-0  73530-5 0  9994
2 61591  53.1603 100.3879 0001286  86.1508 273.9643 15.39618801 42221
Source of the keplerian elements: AFSPC